Location: Observatory
(52.1446°N, 0.4624°W)
Time: 11:22:23
(UTC+01:00)

ISS - Pass Details

Date: 06 July 2020
Orbit: 417 x 420 km, 51.6° (Epoch: 02 July)

Event Time Altitude Azimuth Distance (km) Brightness Sun altitude
Exits shadow 03:56:08 - 252° (WSW) 1,887 -1.0 -6.6°
Reaches altitude 10° 03:57:06 10° 251° (WSW) 1,495 -1.5 -6.5°
Maximum altitude 04:00:26 69° 167° (SSE) 450 -3.7 -6.2°
Drops below altitude 10° 04:03:47 10° 84° (E) 1,498 -0.2 -5.8°
Sets 04:05:53 0° 82° (E) 2,362 0.9 -5.6°
